When you browse on this site, cookies collect data to enhance your experience and personalize the content and advertising you see.
Visit our Privacy Policy to learn more. By continuing to use the site, you agree to this use of cookies and data.
  • In Latvia
  • List of Countries
  • For 7 days
  • Water Temperature
  • Weather Map
  • Weather Widgets
  • user-avatar
    Login

    Hourly Weather Lezhe

    Today, 30 May, Saturday

    Time Temperature Precipitation Wind Pressure Humidity
    00:00 +12°C° 0 mm 2 mps 738 mmHg 82%
    01:00 +12°C° 0 mm 2 mps 738 mmHg 82%
    02:00 +12°C° 0 mm 2 mps 738 mmHg 82%
    03:00 +10°C° 0 mm 2 mps 738 mmHg 81%
    04:00 +10°C° 0 mm 2 mps 738 mmHg 81%
    05:00 +13°C° 0 mm 1 mps 738 mmHg 77%
    06:00 +14°C° 0 mm 1 mps 737 mmHg 73%
    07:00 +16°C° 0 mm 1 mps 737 mmHg 69%
    08:00 +18°C° 0.2 mm 1 mps 737 mmHg 66%
    09:00 +18°C° 0.2 mm 2 mps 737 mmHg 63%
    10:00 +19°C° 0.2 mm 2 mps 737 mmHg 60%
    11:00 +19°C° 0.8 mm 2 mps 737 mmHg 62%
    12:00 +19°C° 0.8 mm 3 mps 736 mmHg 65%
    13:00 +19°C° 0.8 mm 3 mps 736 mmHg 67%
    14:00 +19°C° 0.4 mm 3 mps 736 mmHg 65%
    15:00 +19°C° 0.4 mm 3 mps 736 mmHg 64%
    16:00 +19°C° 0.4 mm 2 mps 736 mmHg 62%
    17:00 +17°C° 0 mm 2 mps 736 mmHg 67%
    18:00 +16°C° 0 mm 1 mps 736 mmHg 72%
    19:00 +14°C° 0 mm 0 mps 736 mmHg 77%
    20:00 +14°C° 0 mm 1 mps 736 mmHg 77%
    21:00 +14°C° 0 mm 1 mps 737 mmHg 77%
    22:00 +14°C° 0 mm 1 mps 737 mmHg 77%
    23:00 +14°C° 0 mm 1 mps 737 mmHg 76%

    Tomorrow, 31 May, Sunday

    Time Temperature Precipitation Wind Pressure Humidity
    00:00 +14°C° 0 mm 1 mps 737 mmHg 76%
    01:00 +14°C° 0 mm 1 mps 737 mmHg 75%
    02:00 +14°C° 0 mm 1 mps 737 mmHg 75%
    03:00 +14°C° 0 mm 1 mps 737 mmHg 74%
    04:00 +14°C° 0 mm 1 mps 736 mmHg 74%
    05:00 +15°C° 0 mm 1 mps 736 mmHg 71%
    06:00 +16°C° 0 mm 1 mps 736 mmHg 68%
    07:00 +18°C° 0 mm 1 mps 736 mmHg 64%
    08:00 +18°C° 0.1 mm 1 mps 736 mmHg 65%
    09:00 +19°C° 0.1 mm 1 mps 736 mmHg 65%
    10:00 +18°C° 0.1 mm 2 mps 736 mmHg 65%
    11:00 +19°C° 0.4 mm 2 mps 736 mmHg 63%
    12:00 +20°C° 0.4 mm 2 mps 735 mmHg 62%
    13:00 +20°C° 0.4 mm 2 mps 735 mmHg 61%
    14:00 +20°C° 0.4 mm 2 mps 735 mmHg 62%
    15:00 +19°C° 0.4 mm 2 mps 735 mmHg 64%
    16:00 +19°C° 0.4 mm 2 mps 735 mmHg 66%
    17:00 +18°C° 0.2 mm 2 mps 735 mmHg 72%
    18:00 +16°C° 0.2 mm 1 mps 735 mmHg 78%
    19:00 +15°C° 0.2 mm 1 mps 735 mmHg 84%
    20:00 +14°C° 0.2 mm 1 mps 735 mmHg 85%
    21:00 +14°C° 0.2 mm 1 mps 735 mmHg 87%
    22:00 +13°C° 0.2 mm 1 mps 736 mmHg 89%
    23:00 +13°C° 0.1 mm 1 mps 736 mmHg 89%

    Day after tomorrow, 1 June, Monday

    Time Temperature Precipitation Wind Pressure Humidity
    00:00 +13°C° 0.1 mm 1 mps 736 mmHg 89%
    01:00 +12°C° 0.1 mm 1 mps 735 mmHg 89%
    02:00 +12°C° 0.4 mm 1 mps 735 mmHg 90%
    03:00 +12°C° 0.4 mm 1 mps 735 mmHg 91%
    04:00 +12°C° 0.4 mm 1 mps 735 mmHg 92%
    05:00 +13°C° 0.3 mm 1 mps 735 mmHg 87%
    06:00 +15°C° 0.3 mm 1 mps 735 mmHg 83%
    07:00 +16°C° 0.3 mm 1 mps 735 mmHg 79%
    08:00 +18°C° 0.6 mm 1 mps 735 mmHg 75%
    09:00 +19°C° 0.6 mm 1 mps 735 mmHg 72%
    10:00 +20°C° 0.6 mm 1 mps 735 mmHg 68%
    11:00 +20°C° 0.4 mm 2 mps 735 mmHg 66%
    12:00 +20°C° 0.4 mm 2 mps 735 mmHg 63%
    13:00 +20°C° 0.4 mm 2 mps 734 mmHg 61%
    14:00 +20°C° 0.5 mm 2 mps 734 mmHg 63%
    15:00 +20°C° 0.5 mm 2 mps 734 mmHg 66%
    16:00 +19°C° 0.5 mm 2 mps 734 mmHg 68%
    17:00 +18°C° 0.4 mm 2 mps 734 mmHg 73%
    18:00 +17°C° 0.4 mm 2 mps 734 mmHg 79%
    19:00 +16°C° 0.4 mm 2 mps 734 mmHg 84%
    20:00 +15°C° 0.1 mm 2 mps 735 mmHg 84%
    21:00 +14°C° 0.1 mm 2 mps 735 mmHg 85%
    22:00 +14°C° 0.1 mm 2 mps 735 mmHg 85%
    23:00 +13°C° 0 mm 2 mps 735 mmHg 85%

    2 June, Tuesday

    Time Temperature Precipitation Wind Pressure Humidity
    00:00 +13°C° 0 mm 2 mps 735 mmHg 85%
    01:00 +11°C° 0 mm 3 mps 734 mmHg 84%
    02:00 +11°C° 0 mm 3 mps 734 mmHg 84%
    03:00 +10°C° 0 mm 3 mps 734 mmHg 84%
    04:00 +10°C° 0 mm 3 mps 734 mmHg 83%
    05:00 +11°C° 0 mm 3 mps 734 mmHg 77%
    06:00 +13°C° 0 mm 3 mps 734 mmHg 71%
    07:00 +16°C° 0 mm 3 mps 734 mmHg 66%
    08:00 +17°C° 0 mm 3 mps 734 mmHg 58%
    09:00 +19°C° 0 mm 3 mps 734 mmHg 50%
    10:00 +20°C° 0 mm 3 mps 734 mmHg 43%
    11:00 +21°C° 0 mm 3 mps 734 mmHg 43%
    12:00 +21°C° 0 mm 3 mps 734 mmHg 43%
    13:00 +22°C° 0 mm 3 mps 733 mmHg 43%
    14:00 +22°C° 0 mm 3 mps 733 mmHg 45%
    15:00 +21°C° 0 mm 3 mps 733 mmHg 48%
    16:00 +21°C° 0 mm 3 mps 732 mmHg 51%
    17:00 +19°C° 0 mm 3 mps 732 mmHg 59%
    18:00 +17°C° 0 mm 3 mps 732 mmHg 66%
    19:00 +16°C° 0 mm 2 mps 732 mmHg 74%
    20:00 +15°C° 0.1 mm 2 mps 733 mmHg 75%
    21:00 +14°C° 0.1 mm 2 mps 733 mmHg 76%
    22:00 +14°C° 0.1 mm 2 mps 733 mmHg 77%
    23:00 +13°C° 0 mm 2 mps 733 mmHg 78%

    3 June, Wednesday

    Time Temperature Precipitation Wind Pressure Humidity
    00:00 +13°C° 0 mm 2 mps 732 mmHg 78%
    01:00 +12°C° 0 mm 2 mps 732 mmHg 78%
    02:00 +12°C° 0 mm 2 mps 732 mmHg 79%
    03:00 +12°C° 0 mm 2 mps 732 mmHg 79%
    04:00 +10°C° 0 mm 2 mps 732 mmHg 79%
    05:00 +13°C° 0 mm 2 mps 732 mmHg 75%
    06:00 +15°C° 0 mm 2 mps 732 mmHg 70%
    07:00 +16°C° 0 mm 2 mps 732 mmHg 65%
    08:00 +19°C° 0.1 mm 1 mps 732 mmHg 61%
    09:00 +20°C° 0.1 mm 1 mps 732 mmHg 57%
    10:00 +22°C° 0.1 mm 1 mps 732 mmHg 53%
    11:00 +21°C° 0.1 mm 2 mps 732 mmHg 52%
    12:00 +21°C° 0.1 mm 2 mps 731 mmHg 51%
    13:00 +21°C° 0.1 mm 3 mps 731 mmHg 50%
    14:00 +21°C° 0.1 mm 3 mps 731 mmHg 51%
    15:00 +21°C° 0.1 mm 3 mps 731 mmHg 52%
    16:00 +21°C° 0.1 mm 3 mps 731 mmHg 53%
    17:00 +19°C° 0 mm 2 mps 731 mmHg 60%
    18:00 +17°C° 0 mm 2 mps 731 mmHg 68%
    19:00 +15°C° 0 mm 1 mps 732 mmHg 75%
    20:00 +14°C° 0 mm 1 mps 732 mmHg 76%
    21:00 +14°C° 0 mm 1 mps 732 mmHg 78%
    22:00 +13°C° 0 mm 1 mps 733 mmHg 79%
    23:00 +13°C° 0 mm 1 mps 733 mmHg 78%

    4 June, Thursday

    Time Temperature Precipitation Wind Pressure Humidity
    00:00 +13°C° 0 mm 1 mps 733 mmHg 77%
    01:00 +13°C° 0 mm 1 mps 733 mmHg 76%
    02:00 +12°C° 0 mm 1 mps 733 mmHg 76%
    03:00 +12°C° 0 mm 1 mps 733 mmHg 75%
    04:00 +12°C° 0 mm 1 mps 733 mmHg 75%
    05:00 +14°C° 0 mm 1 mps 733 mmHg 71%
    06:00 +16°C° 0 mm 1 mps 733 mmHg 66%
    07:00 +19°C° 0 mm 1 mps 733 mmHg 62%
    08:00 +20°C° 0 mm 1 mps 734 mmHg 58%
    09:00 +21°C° 0 mm 1 mps 734 mmHg 55%
    10:00 +23°C° 0 mm 2 mps 734 mmHg 51%
    11:00 +23°C° 0 mm 2 mps 734 mmHg 50%
    12:00 +24°C° 0 mm 2 mps 734 mmHg 49%
    13:00 +24°C° 0 mm 3 mps 734 mmHg 47%
    14:00 +24°C° 0 mm 2 mps 734 mmHg 48%
    15:00 +24°C° 0 mm 2 mps 734 mmHg 48%
    16:00 +23°C° 0 mm 2 mps 734 mmHg 49%
    17:00 +21°C° 0 mm 2 mps 734 mmHg 56%
    18:00 +19°C° 0 mm 2 mps 734 mmHg 63%
    19:00 +18°C° 0 mm 1 mps 734 mmHg 70%
    20:00 +18°C° 0 mm 1 mps 735 mmHg 70%
    21:00 +16°C° 0 mm 1 mps 735 mmHg 70%
    22:00 +16°C° 0 mm 1 mps 735 mmHg 70%
    23:00 +15°C° 0 mm 2 mps 735 mmHg 70%
    Show more